TimeCST,TemperatureF,Dew PointF,Humidity,Sea Level PressureIn,VisibilityMPH,Wind Direction,Wind SpeedMPH,Gust SpeedMPH,PrecipitationIn,Events,Conditions,WindDirDegrees,DateUTC
12:07 AM,50.0,46.4,87,30.08,10.0,NW,11.5,-,N/A,,Overcast,320,2013-01-02 06:07:00
12:15 AM,50.0,46.4,87,30.08,10.0,NNW,9.2,-,N/A,,Overcast,340,2013-01-02 06:15:00
12:53 AM,48.9,46.0,90,30.11,10.0,NNW,9.2,-,N/A,,Overcast,330,2013-01-02 06:53:00
1:53 AM,48.9,45.0,86,30.09,10.0,North,5.8,-,N/A,,Overcast,10,2013-01-02 07:53:00
2:53 AM,48.0,45.0,89,30.12,10.0,NNW,9.2,-,N/A,,Overcast,340,2013-01-02 08:53:00
3:53 AM,46.9,44.1,90,30.11,8.0,NNW,9.2,-,N/A,,Overcast,340,2013-01-02 09:53:00
4:31 AM,46.4,44.6,93,30.10,4.0,NNW,6.9,-,N/A,,Overcast,340,2013-01-02 10:31:00
4:53 AM,46.0,44.1,93,30.12,4.0,NNW,4.6,-,N/A,,Overcast,340,2013-01-02 10:53:00
5:38 AM,46.4,42.8,87,30.12,7.0,NNW,5.8,-,N/A,,Overcast,340,2013-01-02 11:38:00
6:53 AM,46.0,43.0,89,30.15,9.0,North,5.8,-,N/A,,Overcast,360,2013-01-02 12:53:00
7:23 AM,46.4,42.8,87,30.16,10.0,North,9.2,-,N/A,,Overcast,350,2013-01-02 13:23:00
7:53 AM,46.0,41.0,83,30.18,10.0,North,8.1,-,N/A,,Overcast,350,2013-01-02 13:53:00
8:10 AM,46.4,41.0,81,30.18,10.0,North,8.1,-,N/A,,Overcast,350,2013-01-02 14:10:00
8:38 AM,46.4,41.0,81,30.18,10.0,North,6.9,-,N/A,,Overcast,360,2013-01-02 14:38:00
8:53 AM,46.0,41.0,83,30.20,10.0,North,9.2,-,N/A,,Overcast,360,2013-01-02 14:53:00
9:50 AM,46.4,39.2,76,30.22,10.0,North,5.8,-,N/A,,Overcast,360,2013-01-02 15:50:00
9:53 AM,46.0,39.9,79,30.22,10.0,North,5.8,-,N/A,,Overcast,10,2013-01-02 15:53:00
10:33 AM,46.4,39.2,76,30.21,10.0,North,9.2,-,N/A,,Overcast,10,2013-01-02 16:33:00
10:53 AM,46.0,39.9,79,30.21,10.0,North,6.9,-,N/A,,Overcast,350,2013-01-02 16:53:00
11:53 AM,46.9,41.0,80,30.18,9.0,NW,9.2,-,N/A,,Overcast,320,2013-01-02 17:53:00
12:53 PM,46.9,41.0,80,30.16,10.0,North,5.8,-,N/A,,Overcast,360,2013-01-02 18:53:00
1:43 PM,48.2,41.0,76,30.14,10.0,NNE,8.1,-,0.00,,Mostly Cloudy,30,2013-01-02 19:43:00
1:53 PM,46.9,41.0,80,30.14,10.0,NNE,9.2,-,0.00,,Overcast,20,2013-01-02 19:53:00
2:53 PM,46.0,41.0,83,30.14,9.0,North,8.1,-,N/A,,Overcast,360,2013-01-02 20:53:00
3:53 PM,46.0,39.9,79,30.19,10.0,North,3.5,-,0.00,Rain,Light Rain,360,2013-01-02 21:53:00
4:53 PM,45.0,41.0,86,30.21,6.0,WNW,8.1,-,0.00,,Overcast,300,2013-01-02 22:53:00
5:53 PM,43.0,39.9,89,30.21,6.0,NNW,8.1,-,0.00,Rain,Light Rain,330,2013-01-02 23:53:00
6:53 PM,43.0,39.9,89,30.20,6.0,NNW,4.6,-,0.00,,Overcast,340,2013-01-03 00:53:00
7:53 PM,43.0,39.9,89,30.24,6.0,NNW,8.1,-,0.01,Rain,Light Rain,330,2013-01-03 01:53:00
8:53 PM,42.1,39.0,89,30.24,8.0,North,5.8,-,0.01,Rain,Light Rain,350,2013-01-03 02:53:00
10:41 PM,42.8,39.2,87,30.22,6.0,North,5.8,-,0.02,Rain,Light Rain,10,2013-01-03 04:41:00
10:50 PM,42.8,39.2,87,30.24,5.0,NNW,4.6,-,0.03,Rain,Light Rain,330,2013-01-03 04:50:00
10:53 PM,42.1,39.0,89,30.24,5.0,NNW,4.6,-,0.03,Rain,Light Rain,330,2013-01-03 04:53:00
11:53 PM,41.0,37.9,89,30.25,6.0,NW,8.1,-,0.01,Rain,Light Rain,320,2013-01-03 05:53:00